This is the latest recevied weather packets stored in our database for station/object R1ZCU-14. If no packets are shown the sender has not sent any weather packets the latest 10 day(s).
| Time | Temp. | Humidity | Pressure | Rain* | Wind** | Luminosity | Snow |
|---|---|---|---|---|---|---|---|
| 1778073054 | 6.11° C | 48% | 1001.1 hPa | - | - | - | - |
| 1778072454 | 6.11° C | 49% | 1001.1 hPa | - | - | - | - |
| 1778071853 | 6.11° C | 48% | 1001 hPa | - | - | - | - |
| 1778071253 | 5.56° C | 50% | 1001 hPa | - | - | - | - |
| 1778070652 | 5.56° C | 51% | 1001 hPa | - | - | - | - |
| 1778070052 | 6.11° C | 51% | 1000.8 hPa | - | - | - | - |
| 1778069451 | 5.56° C | 53% | 1000.7 hPa | - | - | - | - |
| 1778068851 | 5° C | 60% | 1000.7 hPa | - | - | - | - |
| 1778068250 | 5° C | 60% | 1000.7 hPa | - | - | - | - |
| 1778067650 | 6.67° C | 49% | 1000.3 hPa | - | - | - | - |
| 1778067049 | 7.78° C | 48% | 100 hPa | - | - | - | - |
| 1778066449 | 6.67° C | 50% | 100 hPa | - | - | - | - |
| 1778065848 | 6.11° C | 53% | 100 hPa | - | - | - | - |
| 1778065248 | 5.56° C | 57% | 100 hPa | - | - | - | - |
| 1778064647 | 6.67° C | 54% | 999.9 hPa | - | - | - | - |
| 1778064047 | 6.11° C | 57% | 999.8 hPa | - | - | - | - |
| 1778063446 | 5.56° C | 64% | 999.8 hPa | - | - | - | - |
| 1778062846 | 5° C | 70% | 999.8 hPa | - | - | - | - |
| 1778062245 | 5.56° C | 64% | 999.9 hPa | - | - | - | - |
| 1778061645 | 8.33° C | 44% | 999.3 hPa | - | - | - | - |
| 1778061044 | 7.22° C | 45% | 999.1 hPa | - | - | - | - |
| 1778060444 | 6.67° C | 47% | 999.1 hPa | - | - | - | - |
| 1778059843 | 6.11° C | 51% | 999.1 hPa | - | - | - | - |
| 1778059243 | 6.67° C | 47% | 999 hPa | - | - | - | - |
| 1778058642 | 8.89° C | 38% | 998.8 hPa | - | - | - | - |
* Rain since midnight (hover to see other rain measurements)
** Current wind speed in m/s (hover to see current wind gust speed)